Showing default

ACS 3, 59588

Orbit data source: Space-Track

ACS 3, 59588 is a payload satellite owned by ARC (US) in SSO that was launched on Tue, 23 Apr 2024 UTC via an ELECTRON launch vehicle from the Rocket Lab Launch Complex (RLLC). Payload-class satellites include a variety of spacecraft equipped with specific instruments for various scientific and technological missions. These include communications satellites like Starlink; space stations such as the ISS; scientific satellites like the Hubble; Earth observation satellites from companies like Planet Labs, Umbra, and HawkEye 360; GPS; miniature CubeSats for education and research; and military/defense satellites.

Loading next visibility...
Identifier
59588, 2024-077B
Orbit
SSO
Country
Flag of USUS
Related business
Manufacturer
ARC/NANAVU
Mission
Operational spacecraft
Bus & Motor
CUBESAT 12U, Unknown motor
Mass
16.1 kg wet, 16.1 kg dry
Launch date (UTC)
2024-04-23 (1 year ago)
Launch vehicle
ELECTRON
Launch site
Rocket Lab Launch Complex (RLLC)
Object type
Payload
Rocket body
Debris
Shape & HBR
Unknown
Radar Cross Section
Large (>1 m²)

Expand to show TLE details & history
Last TLE update: 18 hours ago

TLE from 18 hours ago
0 ACS 3
1 59588U 24077B   25260.95091357  .00026889  00000-0  25298-1 0  9999
2 59588  97.3943 235.3582 0043572 344.5422  15.4403 13.80833980 70282
Epoch: 2025-09-17T22:49Z
TLE epoch observation values (Epoch: 2025-09-17T22:49:18.932Z)
Latitude
-0.00002°
Longitude
-104.09018°
Altitude
933.009 km
Speed
7.401 km/s
True Right ascension
15h 41m 25s
True Declination
0° 00' 00"
Sunlit
Object was in daylight at epoch
Visualization orbit readout
Latitude
Unknown
Longitude
Unknown
Altitude
Unknown
Speed
Unknown
Apparent Right ascension
Unknown
Apparent Declination
Unknown
Sunlit
N/A
Visualization observer readout
Local Sidereal Time
09:18:38
Azimuth
Unknown
Elevation
Unknown
Doppler factor
Unknown
Orbital elements
Apogee altitude
990.049 km
Perigee altitude
926.119 km
Semi-major axis
7,336.221 km
Eccentricity
0.00436
Inclination
97.3943°
RAAN
235.3582°
Arg. of periapsis
344.5422°
True anomaly
15.57393°
Mean anomaly
15.4403°
Eccentric anomaly
15.50705°
Mean motion
3.4541 °/min
Orbital period
104.22 mins
BSTAR
0.025298
Loading maneuver chart data...
Computing Atmospheric mass density...
Loading historical data...
Loading historical data...
Loading historical data...
Loading historical data...
Loading historical data...
Loading historical data...
Loading historical data...
Other satellites on launch #77 in the year 2024 (2024-04-23 UTC)

Documentation

Showing up to 5 results
|